Time,TemperatureF,DewpointF,PressureIn,WindDirection,WindDirectionDegrees,WindSpeedMPH,WindSpeedGustMPH,Humidity,HourlyPrecipIn,Conditions,Clouds,dailyrainin,SoftwareType,DateUTC
2013-03-02 00:10:00,24.2,17.7,30.30,North,354,0.0,0.0,76,0.00,CLR,SKC,0.00,WeatherDisplay:10.37,2013-03-02 06:10:00,
2013-03-02 00:20:00,24.2,17.7,30.30,North,0,0.0,0.0,76,0.00,CLR,SKC,0.00,WeatherDisplay:10.37,2013-03-02 06:20:00,
2013-03-02 00:30:00,24.2,17.7,30.30,NNW,346,0.0,0.0,76,0.00,CLR,SKC,0.00,WeatherDisplay:10.37,2013-03-02 06:30:00,
2013-03-02 00:40:00,24.2,17.7,30.29,North,0,0.0,0.0,76,0.00,CLR,SKC,0.00,WeatherDisplay:10.37,2013-03-02 06:40:00,
2013-03-02 00:50:00,24.2,17.7,30.30,North,0,0.0,0.0,76,0.00,CLR,SKC,0.00,WeatherDisplay:10.37,2013-03-02 06:50:00,
2013-03-02 01:10:00,24.2,17.7,30.29,North,354,0.0,0.0,76,0.00,CLR,SKC,0.00,WeatherDisplay:10.37,2013-03-02 07:10:00,
2013-03-02 01:20:00,24.2,17.7,30.29,North,0,0.0,0.0,76,0.00,CLR,SKC,0.00,WeatherDisplay:10.37,2013-03-02 07:20:00,
2013-03-02 01:30:00,24.2,17.7,30.30,North,354,0.0,0.0,76,0.00,CLR,SKC,0.00,WeatherDisplay:10.37,2013-03-02 07:30:00,
2013-03-02 01:40:00,24.2,17.7,30.30,North,354,0.0,0.0,76,0.00,CLR,SKC,0.00,WeatherDisplay:10.37,2013-03-02 07:40:00,
2013-03-02 01:50:00,24.2,17.7,30.30,North,0,0.0,0.0,76,0.00,CLR,SKC,0.00,WeatherDisplay:10.37,2013-03-02 07:50:00,
2013-03-02 02:10:00,24.2,17.7,30.30,North,0,0.0,0.0,76,0.00,CLR,SKC,0.00,WeatherDisplay:10.37,2013-03-02 08:10:00,
2013-03-02 02:20:00,24.2,17.7,30.30,North,0,0.0,0.0,76,0.00,CLR,SKC,0.00,WeatherDisplay:10.37,2013-03-02 08:20:00,
2013-03-02 02:40:00,24.2,17.7,30.30,NNW,346,0.0,0.0,76,0.00,CLR,SKC,0.00,WeatherDisplay:10.37,2013-03-02 08:40:00,
2013-03-02 02:50:00,24.2,17.7,30.29,North,0,0.0,0.0,76,0.00,CLR,SKC,0.00,WeatherDisplay:10.37,2013-03-02 08:50:00,
2013-03-02 15:02:00,32.0,15.4,30.17,North,0,0.0,0.0,50,0.00,CLR,SKC,0.00,WeatherDisplay:10.37,2013-03-02 21:02:00,
2013-03-02 15:19:00,32.0,15.4,30.16,NNW,338,0.0,0.0,50,0.00,CLR,SKC,0.00,WeatherDisplay:10.37,2013-03-02 21:19:00,
2013-03-02 15:40:00,32.0,15.4,30.16,North,354,0.0,0.0,50,0.00,CLR,SKC,0.00,WeatherDisplay:10.37,2013-03-02 21:40:00,
2013-03-02 15:50:00,32.0,15.4,30.15,NNW,338,0.0,0.0,50,0.00,CLR,SKC,0.00,WeatherDisplay:10.37,2013-03-02 21:50:00,
2013-03-02 16:10:00,32.0,15.4,30.15,North,354,0.0,0.0,50,0.00,CLR,SKC,0.00,WeatherDisplay:10.37,2013-03-02 22:10:00,
2013-03-02 16:20:00,32.0,15.4,30.15,NNW,346,0.0,0.0,50,0.00,CLR,SKC,0.00,WeatherDisplay:10.37,2013-03-02 22:20:00,
2013-03-02 16:40:00,32.0,15.4,30.14,NNW,338,0.0,0.0,50,0.00,CLR,SKC,0.00,WeatherDisplay:10.37,2013-03-02 22:40:00,
2013-03-02 16:50:00,32.0,15.4,30.14,NNW,338,0.0,0.0,50,0.00,CLR,SKC,0.00,WeatherDisplay:10.37,2013-03-02 22:50:00,
2013-03-02 17:09:00,32.0,15.4,30.12,NNW,338,0.0,0.0,50,0.00,CLR,SKC,0.00,WeatherDisplay:10.37,2013-03-02 23:09:00,
2013-03-02 17:20:00,32.0,15.4,30.12,NNW,346,0.0,0.0,50,0.00,CLR,SKC,0.00,WeatherDisplay:10.37,2013-03-02 23:20:00,
2013-03-02 17:40:00,32.0,15.4,30.12,NNW,346,0.0,0.0,50,0.00,CLR,SKC,0.00,WeatherDisplay:10.37,2013-03-02 23:40:00,
2013-03-02 17:51:00,32.0,15.4,30.12,North,0,0.0,0.0,50,0.00,CLR,SKC,0.00,WeatherDisplay:10.37,2013-03-02 23:51:00,
2013-03-02 18:10:00,32.0,15.4,30.12,North,0,0.0,0.0,50,0.00,CLR,SKC,0.00,WeatherDisplay:10.37,2013-03-03 00:10:00,
2013-03-02 18:20:00,32.0,15.4,30.11,North,354,0.0,0.0,50,0.00,CLR,SKC,0.00,WeatherDisplay:10.37,2013-03-03 00:20:00,
2013-03-02 18:40:00,32.0,15.4,30.11,North,0,0.0,0.0,50,0.00,CLR,SKC,0.00,WeatherDisplay:10.37,2013-03-03 00:40:00,
2013-03-02 18:50:00,32.0,15.4,30.11,North,0,0.0,0.0,50,0.00,CLR,SKC,0.00,WeatherDisplay:10.37,2013-03-03 00:50:00,
2013-03-02 19:09:00,32.0,15.4,30.11,North,0,0.0,0.0,50,0.00,CLR,SKC,0.00,WeatherDisplay:10.37,2013-03-03 01:09:00,
2013-03-02 19:20:00,32.0,15.4,30.11,North,0,0.0,0.0,50,0.00,CLR,SKC,0.00,WeatherDisplay:10.37,2013-03-03 01:20:00,
2013-03-02 19:40:00,32.0,15.4,30.11,North,0,0.0,0.0,50,0.00,CLR,SKC,0.00,WeatherDisplay:10.37,2013-03-03 01:40:00,
2013-03-02 19:50:00,32.0,15.4,30.11,North,0,0.0,0.0,50,0.00,CLR,SKC,0.00,WeatherDisplay:10.37,2013-03-03 01:50:00,
2013-03-02 20:10:00,32.0,15.4,30.11,North,0,0.0,0.0,50,0.00,CLR,SKC,0.00,WeatherDisplay:10.37,2013-03-03 02:10:00,
2013-03-02 20:20:00,32.0,15.4,30.11,North,0,0.0,0.0,50,0.00,CLR,SKC,0.00,WeatherDisplay:10.37,2013-03-03 02:20:00,
2013-03-02 20:30:00,32.0,15.4,30.11,North,0,0.0,0.0,50,0.00,CLR,SKC,0.00,WeatherDisplay:10.37,2013-03-03 02:30:00,
2013-03-02 20:40:00,32.0,15.4,30.11,North,0,0.0,0.0,50,0.00,CLR,SKC,0.00,WeatherDisplay:10.37,2013-03-03 02:40:00,
2013-03-02 20:49:00,32.0,15.4,30.11,North,0,0.0,0.0,50,0.00,CLR,SKC,0.00,WeatherDisplay:10.37,2013-03-03 02:49:00,
2013-03-02 21:10:00,32.0,15.4,30.11,North,0,0.0,0.0,50,0.00,CLR,SKC,0.00,WeatherDisplay:10.37,2013-03-03 03:10:00,
2013-03-02 21:20:00,32.0,15.4,30.11,North,0,0.0,0.0,50,0.00,CLR,SKC,0.00,WeatherDisplay:10.37,2013-03-03 03:20:00,
2013-03-02 21:30:00,32.0,15.4,30.11,North,0,0.0,0.0,50,0.00,CLR,SKC,0.00,WeatherDisplay:10.37,2013-03-03 03:30:00,
2013-03-02 21:40:00,32.0,15.4,30.11,North,0,0.0,0.0,50,0.00,CLR,SKC,0.00,WeatherDisplay:10.37,2013-03-03 03:40:00,
2013-03-02 21:49:00,32.0,15.4,30.11,North,0,0.0,0.0,50,0.00,CLR,SKC,0.00,WeatherDisplay:10.37,2013-03-03 03:49:00,
2013-03-02 22:09:00,32.0,15.4,30.11,North,0,0.0,0.0,50,0.00,CLR,SKC,0.00,WeatherDisplay:10.37,2013-03-03 04:09:00,
2013-03-02 22:19:00,32.0,15.4,30.11,North,0,0.0,0.0,50,0.00,CLR,SKC,0.00,WeatherDisplay:10.37,2013-03-03 04:19:00,
2013-03-02 22:30:00,32.0,15.4,30.11,North,0,0.0,0.0,50,0.00,CLR,SKC,0.00,WeatherDisplay:10.37,2013-03-03 04:30:00,
2013-03-02 22:39:00,32.0,15.4,30.11,North,0,0.0,0.0,50,0.00,CLR,SKC,0.00,WeatherDisplay:10.37,2013-03-03 04:39:00,
2013-03-02 22:50:00,32.0,15.4,30.11,North,0,0.0,0.0,50,0.00,CLR,SKC,0.00,WeatherDisplay:10.37,2013-03-03 04:50:00,
2013-03-02 23:10:00,32.0,15.4,30.11,North,0,0.0,0.0,50,0.00,CLR,SKC,0.00,WeatherDisplay:10.37,2013-03-03 05:10:00,
2013-03-02 23:19:00,32.0,15.4,30.11,North,0,0.0,0.0,50,0.00,CLR,SKC,0.00,WeatherDisplay:10.37,2013-03-03 05:19:00,
2013-03-02 23:40:00,32.0,15.4,30.11,North,0,0.0,0.0,50,0.00,CLR,SKC,0.00,WeatherDisplay:10.37,2013-03-03 05:40:00,
2013-03-02 23:50:00,32.0,15.4,30.11,North,0,0.0,0.0,50,0.00,CLR,SKC,0.00,WeatherDisplay:10.37,2013-03-03 05:50:00,